Regional Weather Roundup
Issued by NWS

Home | Current Version | Previous Version | Text Only | Print | Product List | Glossary On
Versions: 1 2 3 4 5 6 7 8 9 10 11 12 13 14 15 16 17 18 19 20 21 22 23 24 25 26 27 28 29 30 31 32 33 34 35 36 37 38 39 40 41 42 43 44 45 46 47 48 49 50
659
ASUS44 KLIX 010513
RWRLA
LOUISIANA WEATHER ROUNDUP
NATIONAL WEATHER SERVICE NEW ORLEANS LA
1200 AM CDT MON MAY 01 2017

NOTE: "FAIR" INDICATES FEW OR NO CLOUDS BELOW 12,000 FEET WITH NO
      SIGNIFICANT WEATHER AND/OR OBSTRUCTIONS TO VISIBILITY.
      SKY/WX - SKY CONDITION AND SIGNIFICANT WEATHER.
      TMP - AIR TEMPERATURE.    DP   - DEWPOINT TEMPERATURE.
      RH  - RELATIVE HUMIDITY.  PRES - PRESSURE.
      HX  - HEAT INDEX.         WCI  - WIND CHILL INDEX.

*  THESE STATIONS ARE NOT NWS OR FAA STATIONS AND ARE NOT UNDER
   NWS QUALITY CONTROL.

LAZ040-048-061>063-065-066-069-010600-
SOUTHEAST LOUISIANA

CITY           SKY/WX    TMP DP  RH WIND       PRES   REMARKS
N.O. INTL ARPT PTCLDY    68  56  65 W15       29.92R
N.O. LAKEFRONT MOCLDY    72  59  63 NW29      29.90R
N.O. DOWNTOWN*   N/A     71  59  65 VRB6        N/A
RESERVE*       NOT AVBL
SLIDELL        PTCLDY    68  64  87 CALM      29.89R
BATON ROUGE    CLEAR     62  54  74 W6        29.94R
BOOTHVILLE     CLOUDY    75  74  96 S5        29.90R
BELLE CHASSE   MOCLDY   N/A N/A N/A NW8G17    29.90R
BOGALUSA*      NOT AVBL
GALLIANO*      CLOUDY    70  63  79 NW12      29.91R
NEW ROADS*     FAIR      60  54  79 W3        29.95S
GONZALES*      FAIR      63  55  76 NW7       29.93S
HAMMOND*       CLEAR     63  57  82 NW8       29.92R
HOUMA*         CLEAR     66  60  79 NW8       29.93R
PORT FOURCHON* MOCLDY    72  64  78 NW15G21   29.92R

$$

LAZ041-044-053-054-010600-
SOUTHWEST LOUISIANA

CITY           SKY/WX    TMP DP  RH WIND       PRES   REMARKS
LAKE CHARLES   CLEAR     55  52  89 CALM      29.96S
LAFAYETTE      CLEAR     64  54  69 NW5       29.96R
PATTERSON      CLEAR     63  56  78 NW10      29.96R
SALT POINT       N/A     67  53  61 NW9G17    29.95R
NEW IBERIA     CLEAR     58  53  84 CALM      29.97R
CHENAULT AIRPK CLEAR     55  53  95 SE3       29.97S

$$

LAZ027-028-010600-
CENTRAL LOUISIANA

CITY           SKY/WX    TMP DP  RH WIND       PRES   REMARKS
FORT POLK      CLEAR     57  49  73 SW6       29.93S
ALEXANDRIA INT CLEAR     59  50  72 SW7       29.91F
ALEXANDRIA     CLEAR     52  52 100 CALM      29.92F

$$

LAZ001-002-010600-
NORTHWEST LOUISIANA

CITY           SKY/WX    TMP DP  RH WIND       PRES   REMARKS
SHREVEPORT     CLEAR     59  38  45 W24G30    29.89R
BARKSDALE AFB  CLEAR     61  37  40 W18G26    29.88S
DTN SHREVEPORT CLEAR     61  38  42 W16G22    29.89R

$$

LAZ014-016-010600-
NORTHEAST LOUISIANA

CITY           SKY/WX    TMP DP  RH WIND       PRES   REMARKS
MONROE         CLEAR     57  48  72 S7        29.87F
TALLULAH       CLEAR     59  51  75 CALM      29.90F

$$





USA.gov is the U.S. government's official web portal to all federal, state and local government web resources and services.